Hourly Data Report for October 04, 2013

All times are specified in Local Standard Time (LST). Add 1 hour to adjust for Daylight Saving Time where and when it is observed.

PENTICTON A
BRITISH COLUMBIA

49°27'45.000" N
119°36'08.000" W
344.40 m
1126146
71889
YYF

Download Data

Hourly Data (October 2013)
Hourly Data Report for October 4, 2013
Temp Definition
°C
Dew Point Temp Definition
°C
Rel Hum Definition
%
Wind Dir Definition
10's deg

Wind Spd Definition
km/h
Visibility Definition
km
Stn Press Definition
kPa
Hmdx Definition


Wind Chill Definition


Weather Definition


TIME
00:00 Legend Double Dagger 1.8 0.2 89 34 3 24.1 99.01     LegendNANA
01:00 Legend Double Dagger 1.1 -0.8 87 9 2 24.1 99.07     Clear
02:00 Legend Double Dagger 1.6 0.1 90 35 3 24.1 99.09     LegendNANA
03:00 Legend Double Dagger 1.6 -0.5 86 1 6 24.1 99.10     LegendNANA
04:00 Legend Double Dagger -0.2 -1.8 89 3 4 24.1 99.13   -1 Clear
05:00 Legend Double Dagger -0.6 -1.5 94 3 3 24.1 99.13   -2 LegendNANA
06:00 Legend Double Dagger 0.1 -1.5 89 34 6 24.1 99.15     LegendNANA
07:00 Legend Double Dagger 0.9 -0.9 88 35 4 24.1 99.15     Mainly Clear
08:00 Legend Double Dagger 5.4 2.2 80 7 4 24.1 99.20     LegendNANA
09:00 Legend Double Dagger 7.6 3.5 75 27 2 24.1 99.20     LegendNANA
10:00 Legend Double Dagger 8.9 2.7 65 26 4 24.1 99.14     Mainly Clear
11:00 Legend Double Dagger 11.9 2.9 54 17 23 24.1 99.01     LegendNANA
12:00 Legend Double Dagger 13.9 2.5 46 16 27 24.1 98.95     LegendNANA
13:00 Legend Double Dagger 15.1 3.3 45 17 24 24.1 98.83     Mainly Clear
14:00 Legend Double Dagger 15.8 2.7 41 17 29 24.1 98.74     LegendNANA
15:00 Legend Double Dagger 16.0 3.9 44 19 33 24.1 98.66     LegendNANA
16:00 Legend Double Dagger 15.8 3.7 44 19 30 24.1 98.64     Mostly Cloudy
17:00 Legend Double Dagger 15.2 3.1 44 20 29 24.1 98.63     LegendNANA
18:00 Legend Double Dagger 15.2 2.8 43 19 32 24.1 98.66     LegendNANA
19:00 Legend Double Dagger 14.8 2.8 44 19 19 24.1 98.64     Mostly Cloudy
20:00 Legend Double Dagger 14.7 3.0 45 19 18 24.1 98.63     LegendNANA
21:00 Legend Double Dagger 14.3 3.5 48 18 17 24.1 98.63     LegendNANA
22:00 Legend Double Dagger 14.5 2.5 44 18 22 24.1 98.64     Mostly Cloudy
23:00 Legend Double Dagger 13.9 3.4 49 17 21 24.1 98.64     LegendNANA

Notes on Data Quality.

Legend

  • E = Estimated
  • M = Missing
  • NA = Not Available
  • ‡ = Partner data that is not subject to review by the National Climate Archives
Date modified: